GBYD

Banjul/Yundum International Airport

Airport
ICAO code
GBYD
IATA Code
BJL
Summary
ICAO Region
AFI
ICAO Territory
Location

Banjul, Gambia

Serving
Banjul
Elevation
95 ft
Coordinates
13° 20' 34" N , 16° 39' 6" W
KCC
Metar
GBYD 211000Z VRB03KT 9999 SCT012 SCT220 29/23 Q1013

International airport serving the city of Banjul, The Gambia.

Climatology

Tropical Savanna climate (Köppen climate classification Aw)

Runways

Designator Length Width Surface Rops
14/32 3600 45 ASP Yes/Yes

Airport map

Aerial View

SKYbrary Partners:

Safety knowledge contributed by: